FW1313 Weather Reports


Display with metric or nautical units.
time (UTC)temp
F
wind
direction
speed
MPH
gust
MPH
rain 1hr
in
rain 24hr
in
rain mn
in
humidity
%
barometer
mb
20260903050411 53 97 0.0 0.0 0.00 0.00 0.00 55 1018.2
20260903043414 55 136 0.0 0.0 0.00 0.00 0.00 59 1018.2
20260903040417 56 108 0.0 0.0 0.00 0.00 0.00 56 1018.2
20260903033408 57 130 0.0 0.0 0.00 0.00 0.00 56 1018.0
20260903030417 55 93 0.0 0.0 0.00 0.00 0.00 61 1018.0
20260903023408 57 159 0.0 0.0 0.00 0.00 0.00 56 1018.2
20260903020408 59 159 0.0 0.0 0.00 0.00 0.00 50 1018.4
20260903013408 61 164 0.0 0.0 0.00 0.00 0.00 41 1018.2
20260903010408 63 117 0.0 0.0 0.00 0.00 0.00 36 1017.9
20260903003408 64 166 0.0 1.0 0.00 0.00 0.00 34 1017.8
20260903000414 66 170 0.0 0.0 0.00 0.00 0.00 32 1017.8
20260902233408 67 180 0.0 0.0 0.00 0.00 0.00 27 1017.7
20260902230408 67 203 0.0 0.0 0.00 0.00 0.00 26 1017.8
20260902223411 68 212 0.0 1.0 0.00 0.00 0.00 24 1017.9
20260902220411 68 174 0.0 0.0 0.00 0.00 0.00 23 1017.8
20260902213408 67 177 0.0 1.0 0.00 0.00 0.00 20 1017.6
20260902210408 69 201 0.0 1.0 0.00 0.00 0.00 23 1017.4
20260902203408 71 225 0.0 0.0 0.00 0.00 0.00 23 1017.0
20260902200408 71 186 0.0 0.0 0.00 0.00 0.00 23 1017.1
20260902193408 71 174 0.0 0.0 0.00 0.00 0.00 24 1016.6
20260902190408 71 150 0.0 0.0 0.00 0.00 0.00 22 1016.6
20260902183411 70 152 0.0 1.0 0.00 0.00 0.00 24 1016.6
20260902180414 68 176 0.0 1.0 0.00 0.00 0.00 22 1016.3
20260902173408 67 123 0.0 0.0 0.00 0.00 0.00 22 1016.0
20260902170417 65 129 0.0 3.0 0.00 0.00 0.00 21 1015.9
20260902163408 60 101 0.0 0.0 0.00 0.00 0.00 23 1015.6
20260902160408 59 194 0.0 0.0 0.00 0.00 0.00 24 1015.6
20260902153408 58 153 0.0 0.0 0.00 0.00 0.00 24 1015.4
20260902150408 56 178 0.0 0.0 0.00 0.00 0.00 25 1015.6
20260902143408 55 143 0.0 0.0 0.00 0.00 0.00 24 1015.6
20260902140414 55 159 0.0 0.0 0.00 0.00 0.00 23 1015.2
20260902133408 55 150 0.0 0.0 0.00 0.00 0.00 23 1015.2
20260902130411 55 143 0.0 0.0 0.00 0.00 0.00 23 1015.2
20260902123411 54 134 0.0 0.0 0.00 0.00 0.00 24 1015.2
20260902120408 54 156 0.0 0.0 0.00 0.00 0.00 24 1015.4
20260902113408 54 134 0.0 1.0 0.00 0.00 0.00 26 1015.5
20260902110408 54 121 0.0 0.0 0.00 0.00 0.00 29 1016.0
20260902103408 54 122 0.0 1.0 0.00 0.00 0.00 31 1016.4
20260902100408 54 139 0.0 0.0 0.00 0.00 0.00 31 1016.7
20260902093408 53 84 0.0 0.0 0.00 0.00 0.00 37 1016.9
20260902090408 53 108 0.0 0.0 0.00 0.00 0.00 41 1017.3
20260902083408 53 153 0.0 0.0 0.00 0.00 0.00 30 1017.9
20260902080408 53 103 0.0 0.0 0.00 0.00 0.00 32 1018.0
20260902073408 54 127 0.0 0.0 0.00 0.00 0.00 35 1018.0
20260902070411 55 117 0.0 0.0 0.00 0.00 0.00 31 1018.2
20260902063411 55 138 0.0 0.0 0.00 0.00 0.00 29 1018.5
20260902060408 56 125 0.0 0.0 0.00 0.00 0.00 33 1018.6
20260902053411 56 114 0.0 0.0 0.00 0.00 0.00 40 1018.9